Flag for Sweden Weather past 2 weeks in Uppsala, Sweden

Now
63 °F

Sunny.


Feels Like: 63 °F
Forecast: 47 / 61 °F
Wind: 9 mph from Southwest

Location: Stockholm / Arlanda

Current Time: Sep 20, 2014 at 4:57:00 PM

Latest Report: Sep 20, 2014 at 3:20 PM


Visibility: 10 mi

Pressure: 29.92 "Hg

Humidity: 77%

Dew point: 55 °F

Location of UppsalaLocation

Historic Weather in Uppsala — Graph

°F

Uppsala temperature yesterday

Maximum temperature yesterday: 68 °F (at 2:50 PM)
Minimum temperature yesterday: 48 °F (at 12:20 AM)
Average temperature yesterday: 56 °F

Past Weeks' High & Low Weather Summary

 TemperatureHumidityPressure
High70 °F (Sep 7, 2:50 PM)100% (Sep 6, 12:20 AM)30.48 "Hg (Sep 6, 12:20 AM)
Low37 °F (Sep 17, 5:50 AM)43% (Sep 14, 4:50 PM)29.80 "Hg (Sep 9, 3:50 AM)
Average56 °F84%30.18 "Hg
* Reported Sep 5 3:20 PM — Sep 20 3:20 PM, Uppsala, Weather by CustomWeather, © 2014

Note: Actual official high and low records may vary slightly from our data, if they occured in-between our weather recording intervals... More about our weather records

Advertising

Uppsala weather history for previous 24 hours

 ConditionsComfort  
Time TempWeatherWind HumidityBarometerVisibility
3:20 PM
Sep 20
63 °FSunny.9 mph77%29.92 "Hg10 mi
2:50 PM64 °FPassing clouds.8 mph73%29.92 "HgN/A
2:20 PM64 °FPassing clouds.8 mph78%29.95 "HgN/A
1:50 PM64 °FPassing clouds.7 mph78%29.95 "HgN/A
1:20 PM63 °FPassing clouds.7 mph77%29.95 "HgN/A
12:20 PM59 °FPartly sunny.1 mph94%29.98 "HgN/A
11:50 AM57 °FPartly sunny.2 mph100%29.98 "HgN/A
11:20 AM55 °FFog.2 mph100%29.98 "Hg6 mi
10:50 AM54 °FFog.5 mph100%29.98 "Hg5 mi
10:20 AM54 °FFog.3 mph100%30.01 "Hg3 mi
9:50 AM54 °FFog.5 mph100%30.01 "Hg2 mi
9:20 AM52 °FFog.5 mph100%30.01 "Hg1 mi
8:50 AM52 °FFog.5 mph100%30.01 "Hg0 mi
8:20 AM52 °FFog.5 mph100%30.01 "Hg0 mi
7:50 AM52 °FFog.5 mph100%30.01 "Hg0 mi
7:20 AM52 °FFog.3 mph100%30.01 "Hg0 mi
6:50 AM52 °FFog.3 mph100%30.01 "Hg0 mi
6:20 AM54 °FFog.2 mph100%30.01 "Hg0 mi
5:50 AM54 °FFog.3 mph100%30.01 "Hg0 mi
5:20 AM54 °FFog.3 mph100%30.01 "Hg0 mi
4:50 AM54 °FFog.3 mph100%30.01 "Hg0 mi
4:20 AM54 °FFog.2 mph100%30.01 "Hg0 mi
3:50 AM54 °FFog.3 mph100%30.04 "Hg0 mi
3:20 AM52 °FFog.3 mph100%30.04 "Hg0 mi
2:50 AM50 °FFog.2 mph100%30.04 "Hg0 mi
2:20 AM50 °FFog.No wind100%30.04 "Hg0 mi
1:50 AM48 °FFog.No wind100%30.04 "Hg0 mi
1:20 AM48 °FFog.No wind100%30.04 "Hg0 mi
12:50 AM46 °FFog.1 mph100%30.04 "Hg0 mi
12:20 AM48 °FFog.3 mph100%30.04 "Hg0 mi
11:50 PM
Sep 19
48 °FDense fog.5 mph100%30.04 "Hg1 mi
11:20 PM48 °FFog.2 mph100%30.04 "Hg4 mi
10:50 PM48 °FFog.1 mph100%30.07 "Hg4 mi
10:20 PM50 °FFog.No wind94%30.07 "Hg6 mi
9:50 PM50 °FFog.1 mph94%30.07 "HgN/A
9:20 PM52 °FClear.2 mph100%30.07 "Hg10 mi
8:50 PM52 °FClear.3 mph94%30.07 "Hg10 mi
8:20 PM57 °FClear.5 mph77%30.07 "Hg10 mi
7:50 PM59 °FSunny.5 mph72%30.07 "Hg10 mi
7:20 PM61 °FSunny.5 mph68%30.07 "Hg10 mi
6:50 PM63 °FPassing clouds.5 mph64%30.07 "HgN/A
6:20 PM64 °FPassing clouds.5 mph64%30.07 "HgN/A
5:50 PM66 °FPassing clouds.6 mph60%30.07 "HgN/A
5:20 PM66 °FPassing clouds.5 mph56%30.07 "HgN/A
4:50 PM66 °FPassing clouds.5 mph56%30.07 "HgN/A
4:20 PM68 °FPassing clouds.3 mph53%30.07 "HgN/A
Weather by CustomWeather, © 2014

See weather overviewHow to use our weather pages